Kenosha, WI

11:15 PM CDT on September 24, 2016 (GMT -0500)
Kenosha Regional

Weather History for KENW - May, 2013

Change the Weather History Date:

Sunday, May 26, 2013

  Actual Average Record
Temperature  
Mean Temperature 50 °F -  
Max Temperature 63 °F 64 °F 84 °F (1966)
Min Temperature 37 °F 47 °F 33 °F (1983)
Degree Days  
Heating Degree Days 15    
Moisture  
Dew Point 40 °F    
Average Humidity 65    
Maximum Humidity 89    
Minimum Humidity 46    
Precipitation  
Precipitation 0.00 in - - ()
Sea Level Pressure  
Sea Level Pressure 30.27 in    
Wind  
Wind Speed 5 mph (East)    
Max Wind Speed 13 mph    
Max Gust Speed -    
Visibility 10 miles    
Events Rain    
Averages and records for this station are not official NWS values.
T = Trace of Precipitation, MM = Missing Value Source: NWS Daily Summary

Daily Weather History Graph

Daily Weather History Graph

Search for Another Location

Airport or City:

Trip Planner

Search our weather history database for the weather conditions in past years. The results will help you decide how hot, cold, wet, or windy it might be!

Date:

Astronomy

May. 26, 2013 Rise Set
Actual Time 5:20 AM CDT 8:18 PM CDT
Civil Twilight 4:46 AM CDT 8:51 PM CDT
Nautical Twilight 4:03 AM CDT 9:34 PM CDT
Astronomical Twilight 3:13 AM CDT 10:24 PM CDT
Moon 10:04 PM CDT (5/26) 6:49 AM CDT (5/26)
Length of Visible Light 16h 05m
Length of Day
14h 58m
Waning Gibbous, 96% of the Moon is Illuminated
May 26
Waning Gibbous
May 31
Last Quarter
Jun 8
New
Jun 16
First Quarter
Jun 23
Full

Hourly Weather History & Observations

Time (CDT) Temp. Windchill Dew Point Humidity Pressure Visibility Wind Dir Wind Speed Gust Speed Precip Events Conditions
12:53 AM 39.9 °F - 34.0 °F 79% 30.32 in 10.0 mi Calm Calm - N/A   Clear
1:53 AM 37.9 °F - 35.1 °F 89% 30.31 in 10.0 mi Calm Calm - N/A   Clear
2:53 AM 39.9 °F 37.8 °F 34.0 °F 79% 30.30 in 10.0 mi NNW 3.5 mph - N/A   Clear
3:53 AM 39.0 °F 35.7 °F 33.1 °F 79% 30.30 in 10.0 mi NNE 4.6 mph - N/A   Clear
4:53 AM 37.0 °F - 30.9 °F 79% 30.30 in 10.0 mi Calm Calm - N/A   Clear
5:53 AM 39.0 °F 35.7 °F 34.0 °F 82% 30.30 in 10.0 mi NE 4.6 mph - N/A   Clear
6:53 AM 46.9 °F - 39.9 °F 77% 30.32 in 10.0 mi NE 4.6 mph - N/A   Mostly Cloudy
7:53 AM 52.0 °F - 41.0 °F 66% 30.31 in 10.0 mi East 6.9 mph - N/A   Partly Cloudy
8:53 AM 55.9 °F - 41.0 °F 57% 30.31 in 10.0 mi East 9.2 mph - N/A   Clear
9:53 AM 57.9 °F - 41.0 °F 53% 30.31 in 10.0 mi ESE 10.4 mph - N/A   Clear
10:53 AM 60.1 °F - 42.1 °F 51% 30.31 in 10.0 mi East 10.4 mph - N/A   Clear
11:53 AM 62.1 °F - 43.0 °F 50% 30.31 in 10.0 mi ESE 10.4 mph - N/A   Clear
12:53 PM 59.0 °F - 42.1 °F 53% 30.29 in 10.0 mi ESE 10.4 mph - N/A   Clear
1:53 PM 62.1 °F - 44.1 °F 52% 30.27 in 10.0 mi East 11.5 mph - N/A   Clear
2:53 PM 63.0 °F - 42.1 °F 46% 30.27 in 10.0 mi ESE 11.5 mph - N/A   Overcast
3:53 PM 61.0 °F - 42.1 °F 50% 30.26 in 10.0 mi East 9.2 mph - N/A   Clear
4:53 PM 60.1 °F - 42.1 °F 51% 30.23 in 10.0 mi East 12.7 mph - N/A   Overcast
5:53 PM 55.9 °F - 43.0 °F 62% 30.21 in 10.0 mi East 9.2 mph - 0.00 in Rain Light Rain
6:53 PM 54.0 °F - 45.0 °F 72% 30.21 in 10.0 mi East 5.8 mph - 0.00 in Rain Light Rain
7:53 PM 52.0 °F - 43.0 °F 71% 30.19 in 10.0 mi ENE 10.4 mph - 0.00 in   Overcast
8:53 PM 51.1 °F - 42.1 °F 71% 30.21 in 10.0 mi ENE 4.6 mph - N/A   Overcast
9:53 PM 51.1 °F - 41.0 °F 68% 30.20 in 10.0 mi ENE 6.9 mph - N/A   Overcast
10:53 PM 52.0 °F - 39.9 °F 63% 30.19 in 10.0 mi ENE 9.2 mph - N/A   Overcast
11:53 PM 52.0 °F - 41.0 °F 66% 30.18 in 10.0 mi ENE 6.9 mph - N/A   Overcast